Simultaneous Nadir Overpasses (SNOs) Predictions

Prediction of SNOs between LANDSAT-8 and NOAA-19 Satellite Orbit:

Table of predicted SNOs for the next 14.0 days since TLE Epoch: 3/30/2017
Index Date (LANDSAT-8) Time (LANDSAT-8) Lat,Lon (LANDSAT-8) SZA (LANDSAT-8 ) Date (NOAA-19) Time (NOAA-19) Lat,Lon (NOAA-19) SZA (NOAA-19 ) Distance(km) Time Diff (sec)
1 04/01/2017 05:35:47 -75.95, -76.06 108.64 04/01/2017 05:35:43 -75.95, -76.16 108.65 2.74 4
2 04/03/2017 10:19:53 -76.47,-145.50 108.92 04/03/2017 10:18:48 -76.55,-149.11 108.94 93.99 65
3 04/03/2017 11:09:30 75.91, 20.38 70.46 04/03/2017 11:09:39 75.93, 20.50 70.48 3.34 9
4 04/05/2017 15:53:45 75.99, -50.48 69.71 04/05/2017 15:52:32 76.03, -50.54 69.75 5.38 73
5 04/05/2017 16:43:13 -75.96, 117.09 110.33 04/05/2017 16:43:27 -75.95, 117.03 110.34 2.28 14
6
